{"data":{"norad_id":67675,"intl_designator":"2026-023B","name":"COSMOS 2601","alt_names":[],"object_type":"PAYLOAD","status":"ACTIVE","operator":null,"country":"CIS","launch_date":"2026-02-05","launch_site_code":"PLMSC","launch_vehicle":null,"mission":null,"orbit_class":"UNKNOWN","rcs_meters":null,"size_class":null,"mass_kg":null,"dimensions":null,"purposes":[],"wikipedia_slug":null,"has_3d_model":false,"image_url":null,"decayed_at":null,"tle_current":{"epoch":"2026-05-25T03:41:21.845184Z","epoch_age_seconds":55099,"freshness":"FRESH","line1":"1 67675U 26023B   26145.15372506  .00009629  00000+0  39123-3 0  9997","line2":"2 67675  96.6262 209.2809 0016570 215.5686 144.4451 15.24609878 16501","mean_motion":15.24609878,"eccentricity":0.001657,"inclination_deg":96.6262,"raan_deg":209.2809,"arg_perigee_deg":215.5686,"mean_anomaly_deg":144.4451,"bstar":0.00039123,"rev_number":1650,"period_min":94.450391590602,"perigee_km":480.57339886637,"apogee_km":503.34089086246,"semimajor_km":6870.0941448644,"source":"CELESTRAK","updated_at":"2026-05-25T13:38:07.183253Z"}}}